Regional Weather Roundup
Issued by NWS Midland/Odessa, TX

Skip options and go directly to product.
Home | Oldest Version | Next Version | Current Version | All | Text Only | Save Text | Print | Product List | Glossary On

Skip product version selection by date and time.   
246
ASUS44 KMAF 080401
RWRMAF
MIDLAND AREA WEATHER ROUNDUP
NATIONAL WEATHER SERVICE MIDLAND TX
1000 PM CST SUN FEB 07 2016

...IN SOUTHWEST TEXAS AND SOUTHEAST NEW MEXICO...

CITY           SKY/WX    TMP DP  RH WIND       PRES   REMARKS
ALPINE         PTCLDY    44  17  33 SW6       30.34R
ANDREWS        FAIR      44  20  39 E6        30.29R
ARTESIA        CLOUDY    43  23  45 S5        30.28R
BIG SPRING     PTCLDY    49  22  34 NE13      30.30S
CARLSBAD       CLOUDY    42  23  46 W7        30.26R WCI  38
DRYDEN           N/A     51  16  24 CALM      30.21R
FORT STOCKTON  CLOUDY    51  22  31 E7        30.26R
GUAD PASS      CLOUDY    50  14  23 NE21      30.31R
HOBBS          CLOUDY    45  18  33 E8        30.31R
MARFA          CLOUDY    41  11  29 NW7       30.31R WCI  36
MIDLAND AIRPK  PTCLDY    47  20  34 NE7       30.28R
MIDLAND INTL   PTCLDY    51  19  28 NE10      30.27R
ODESSA         PTCLDY    47  21  35 E9        30.28R
PECOS          CLOUDY    50  21  31 NE8       30.25R
PRESIDIO       FAIR      54  12  19 N13       30.23R
SEMINOLE       CLOUDY    42  20  41 NE6       30.30R WCI  38
SNYDER           N/A     48  26  42 NE8       30.30R
WINK           CLOUDY    49  18  29 E9        30.24R
$$
...OTHER STATIONS IN TEXAS...

CITY           SKY/WX    TMP DP  RH WIND       PRES   REMARKS
ABILENE        CLEAR     45  27  49 N6        30.29R
AMARILLO       CLEAR     32  16  51 N14       30.39R WCI  22
AUSTIN         PTCLDY    48  32  53 SW5       30.14S
BROWNSVILLE    PTCLDY    55  48  77 SE3       30.17S
CORPUS CHRISTI CLOUDY    52  43  71 SE8       30.18R
DALLAS FTW     PTCLDY    47  31  53 N9        30.22R
DEL RIO        CLOUDY    54  24  31 N3        30.17R
EL PASO        CLOUDY    51  14  22 CALM      30.27R
HOUSTON INT    PTCLDY    54  41  61 S3        30.16F
LUBBOCK        PTCLDY    39  19  44 NE13      30.33R WCI  31
SAN ANGELO     CLEAR     51  24  34 N9        30.24R
SAN ANTONIO    MOCLDY    50  32  50 NW6       30.15S
WACO           PTCLDY    45  34  65 N7        30.19R
WICHITA FALLS  NOT AVBL
$$
...OTHER LOCATIONS IN NEW MEXICO...

CITY           SKY/WX    TMP DP  RH WIND       PRES   REMARKS
ALAMAGORDO     CLOUDY    50  16  25 NE5       30.27R
ALBUQUERQUE    CLOUDY    43  19  38 N5        30.38R
CANNON AFB     CLEAR     37  18  45 NE16      30.35R WCI  28
CLOVIS         CLEAR     36  18  48 NE17      30.36R WCI  25
HOLLOMAN AFB   CLOUDY    42  13  30 N5        30.26R WCI  39
ROSWELL        CLOUDY    41  19  41 NW5       30.29R WCI  38
RUIDOSO          N/A     39  12  33 W6        30.38R WCI  35
SANTA FE       CLOUDY    38  18  44 W7        30.34S WCI  33
TRUTH OR CONSE PTCLDY    48  14  25 N8        30.31R
TUCUMCARI      CLEAR     35  18  49 NE10      30.38R WCI  27
$$

USA.gov is the U.S. government's official web portal to all federal, state and local government web resources and services.